When you browse on this site, cookies collect data to enhance your experience and personalize the content and advertising you see.
Visit our Privacy Policy to learn more. By continuing to use the site, you agree to this use of cookies and data.
  • In Lithuania
  • List of Countries
  • For 7 days
  • Water Temperature
  • Weather Map
  • Weather Widgets
  • user-avatar
    Login

    Hourly Weather Quito

    Today, 29 May, Friday

    Time Temperature Precipitation Wind Pressure Humidity
    00:00 +16°C° 0 mm 1 mps 623 mmHg 60%
    01:00 +15°C° 0 mm 1 mps 623 mmHg 65%
    02:00 +14°C° 0 mm 1 mps 622 mmHg 66%
    03:00 +14°C° 0 mm 1 mps 622 mmHg 68%
    04:00 +13°C° 0 mm 1 mps 622 mmHg 70%
    05:00 +14°C° 0 mm 1 mps 622 mmHg 68%
    06:00 +14°C° 0 mm 1 mps 623 mmHg 67%
    07:00 +15°C° 0 mm 1 mps 624 mmHg 65%
    08:00 +17°C° 0 mm 2 mps 625 mmHg 57%
    09:00 +20°C° 0 mm 3 mps 626 mmHg 49%
    10:00 +22°C° 0 mm 4 mps 626 mmHg 41%
    11:00 +24°C° 0 mm 3 mps 626 mmHg 38%
    12:00 +26°C° 0 mm 3 mps 625 mmHg 34%
    13:00 +27°C° 0 mm 3 mps 625 mmHg 31%
    14:00 +26°C° 0 mm 2 mps 624 mmHg 31%
    15:00 +26°C° 0 mm 2 mps 624 mmHg 31%
    16:00 +26°C° 0 mm 2 mps 623 mmHg 32%
    17:00 +23°C° 0 mm 1 mps 623 mmHg 38%
    18:00 +21°C° 0 mm 1 mps 623 mmHg 44%
    19:00 +18°C° 0 mm 1 mps 622 mmHg 50%
    20:00 +16°C° 0 mm 1 mps 622 mmHg 51%
    21:00 +16°C° 0 mm 1 mps 622 mmHg 52%
    22:00 +14°C° 0 mm 0 mps 622 mmHg 54%
    23:00 +14°C° 0 mm 0 mps 622 mmHg 56%

    Tomorrow, 30 May, Saturday

    Time Temperature Precipitation Wind Pressure Humidity
    00:00 +14°C° 0 mm 1 mps 622 mmHg 58%
    01:00 +13°C° 0 mm 1 mps 622 mmHg 60%
    02:00 +13°C° 0 mm 1 mps 622 mmHg 60%
    03:00 +13°C° 0 mm 1 mps 622 mmHg 59%
    04:00 +12°C° 0 mm 1 mps 622 mmHg 59%
    05:00 +13°C° 0 mm 1 mps 622 mmHg 58%
    06:00 +13°C° 0 mm 1 mps 623 mmHg 58%
    07:00 +13°C° 0 mm 1 mps 623 mmHg 57%
    08:00 +16°C° 0 mm 2 mps 624 mmHg 48%
    09:00 +20°C° 0 mm 3 mps 625 mmHg 39%
    10:00 +24°C° 0 mm 3 mps 626 mmHg 29%
    11:00 +25°C° 0 mm 3 mps 626 mmHg 27%
    12:00 +26°C° 0 mm 3 mps 625 mmHg 26%
    13:00 +27°C° 0 mm 3 mps 625 mmHg 24%
    14:00 +27°C° 0 mm 3 mps 625 mmHg 24%
    15:00 +26°C° 0 mm 2 mps 624 mmHg 24%
    16:00 +26°C° 0 mm 2 mps 624 mmHg 24%
    17:00 +23°C° 0 mm 1 mps 623 mmHg 29%
    18:00 +20°C° 0 mm 1 mps 623 mmHg 34%
    19:00 +16°C° 0 mm 1 mps 622 mmHg 39%
    20:00 +15°C° 0 mm 0 mps 623 mmHg 40%
    21:00 +14°C° 0 mm 0 mps 623 mmHg 41%
    22:00 +14°C° 0 mm 0 mps 623 mmHg 42%
    23:00 +13°C° 0 mm 0 mps 623 mmHg 43%

    Day after tomorrow, 31 May, Sunday

    Time Temperature Precipitation Wind Pressure Humidity
    00:00 +13°C° 0 mm 1 mps 623 mmHg 45%
    01:00 +13°C° 0 mm 1 mps 623 mmHg 46%
    02:00 +13°C° 0 mm 1 mps 623 mmHg 48%
    03:00 +12°C° 0 mm 1 mps 622 mmHg 50%
    04:00 +12°C° 0 mm 1 mps 622 mmHg 52%
    05:00 +12°C° 0 mm 1 mps 623 mmHg 54%
    06:00 +13°C° 0 mm 1 mps 623 mmHg 55%
    07:00 +13°C° 0 mm 1 mps 624 mmHg 57%
    08:00 +17°C° 0 mm 2 mps 625 mmHg 50%
    09:00 +20°C° 0 mm 3 mps 626 mmHg 42%
    10:00 +24°C° 0 mm 3 mps 627 mmHg 35%
    11:00 +25°C° 0 mm 3 mps 626 mmHg 34%
    12:00 +26°C° 0 mm 3 mps 626 mmHg 33%
    13:00 +27°C° 0 mm 3 mps 626 mmHg 32%
    14:00 +27°C° 0 mm 3 mps 626 mmHg 32%
    15:00 +26°C° 0 mm 3 mps 625 mmHg 33%
    16:00 +26°C° 0 mm 2 mps 625 mmHg 33%
    17:00 +23°C° 0 mm 2 mps 624 mmHg 39%
    18:00 +20°C° 0 mm 1 mps 624 mmHg 44%
    19:00 +16°C° 0 mm 0 mps 623 mmHg 50%
    20:00 +16°C° 0 mm 1 mps 624 mmHg 52%
    21:00 +16°C° 0 mm 1 mps 624 mmHg 53%
    22:00 +15°C° 0 mm 1 mps 624 mmHg 55%
    23:00 +15°C° 0 mm 1 mps 624 mmHg 58%

    1 June, Monday

    Time Temperature Precipitation Wind Pressure Humidity
    00:00 +14°C° 0 mm 1 mps 624 mmHg 61%
    01:00 +14°C° 0 mm 1 mps 624 mmHg 65%
    02:00 +13°C° 0 mm 1 mps 623 mmHg 67%
    03:00 +13°C° 0 mm 1 mps 623 mmHg 69%
    04:00 +12°C° 0 mm 1 mps 623 mmHg 71%
    05:00 +13°C° 0 mm 1 mps 623 mmHg 69%
    06:00 +14°C° 0 mm 1 mps 624 mmHg 68%
    07:00 +14°C° 0 mm 1 mps 624 mmHg 66%
    08:00 +17°C° 0 mm 2 mps 625 mmHg 57%
    09:00 +20°C° 0 mm 3 mps 626 mmHg 48%
    10:00 +23°C° 0 mm 4 mps 627 mmHg 39%
    11:00 +25°C° 0 mm 4 mps 626 mmHg 36%
    12:00 +26°C° 0 mm 3 mps 626 mmHg 33%
    13:00 +27°C° 0 mm 3 mps 626 mmHg 30%
    14:00 +27°C° 0 mm 3 mps 625 mmHg 30%
    15:00 +27°C° 0 mm 3 mps 625 mmHg 31%
    16:00 +26°C° 0 mm 2 mps 625 mmHg 31%
    17:00 +24°C° 0 mm 2 mps 624 mmHg 37%
    18:00 +21°C° 0 mm 1 mps 624 mmHg 42%
    19:00 +18°C° 0 mm 1 mps 623 mmHg 48%
    20:00 +18°C° 0 mm 1 mps 624 mmHg 48%
    21:00 +18°C° 0 mm 1 mps 624 mmHg 48%
    22:00 +18°C° 0 mm 1 mps 624 mmHg 48%
    23:00 +18°C° 0 mm 1 mps 624 mmHg 49%

    2 June, Tuesday

    Time Temperature Precipitation Wind Pressure Humidity
    00:00 +18°C° 0 mm 1 mps 624 mmHg 51%
    01:00 +18°C° 0 mm 1 mps 624 mmHg 52%
    02:00 +18°C° 0 mm 1 mps 624 mmHg 53%
    03:00 +16°C° 0 mm 1 mps 624 mmHg 54%
    04:00 +16°C° 0 mm 1 mps 624 mmHg 55%
    05:00 +15°C° 0 mm 1 mps 624 mmHg 58%
    06:00 +15°C° 0 mm 1 mps 624 mmHg 62%
    07:00 +15°C° 0 mm 1 mps 624 mmHg 65%
    08:00 +17°C° 0 mm 2 mps 625 mmHg 56%
    09:00 +20°C° 0 mm 3 mps 626 mmHg 47%
    10:00 +23°C° 0 mm 4 mps 626 mmHg 38%
    11:00 +25°C° 0 mm 3 mps 626 mmHg 35%
    12:00 +26°C° 0 mm 3 mps 626 mmHg 32%
    13:00 +27°C° 0 mm 3 mps 625 mmHg 28%
    14:00 +27°C° 0 mm 2 mps 625 mmHg 28%
    15:00 +27°C° 0 mm 2 mps 624 mmHg 28%
    16:00 +26°C° 0 mm 2 mps 624 mmHg 28%
    17:00 +23°C° 0 mm 1 mps 623 mmHg 34%
    18:00 +20°C° 0 mm 1 mps 623 mmHg 40%
    19:00 +15°C° 0 mm 0 mps 622 mmHg 47%
    20:00 +16°C° 0 mm 0 mps 623 mmHg 46%
    21:00 +16°C° 0 mm 0 mps 623 mmHg 45%
    22:00 +16°C° 0 mm 0 mps 623 mmHg 45%
    23:00 +16°C° 0 mm 0 mps 623 mmHg 45%

    3 June, Wednesday

    Time Temperature Precipitation Wind Pressure Humidity
    00:00 +18°C° 0 mm 1 mps 623 mmHg 46%
    01:00 +18°C° 0 mm 1 mps 623 mmHg 47%
    02:00 +16°C° 0 mm 1 mps 622 mmHg 50%
    03:00 +15°C° 0 mm 1 mps 622 mmHg 54%
    04:00 +14°C° 0 mm 1 mps 622 mmHg 58%
    05:00 +15°C° 0 mm 1 mps 622 mmHg 58%
    06:00 +15°C° 0 mm 1 mps 623 mmHg 59%
    07:00 +15°C° 0 mm 1 mps 623 mmHg 60%
    08:00 +18°C° 0 mm 2 mps 624 mmHg 51%
    09:00 +21°C° 0 mm 2 mps 625 mmHg 43%
    10:00 +25°C° 0 mm 3 mps 626 mmHg 34%
    11:00 +25°C° 0 mm 2 mps 625 mmHg 33%
    12:00 +25°C° 0 mm 2 mps 625 mmHg 32%
    13:00 +26°C° 0 mm 2 mps 624 mmHg 31%
    14:00 +26°C° 0 mm 2 mps 624 mmHg 31%
    15:00 +25°C° 0 mm 1 mps 624 mmHg 31%
    16:00 +25°C° 0 mm 1 mps 623 mmHg 31%
    17:00 +23°C° 0 mm 1 mps 623 mmHg 36%
    18:00 +21°C° 0 mm 1 mps 623 mmHg 40%
    19:00 +18°C° 0 mm 1 mps 622 mmHg 45%
    20:00 +19°C° 0 mm 1 mps 623 mmHg 44%
    21:00 +19°C° 0 mm 1 mps 623 mmHg 43%
    22:00 +19°C° 0 mm 1 mps 624 mmHg 42%
    23:00 +19°C° 0 mm 1 mps 624 mmHg 41%
    Show more